User: anonymous   Login
Location: Rumah Dana
(3.1167°N, 113.0167°E)
Time: 14:29:42
(UTC+00:00)
Language:

ACS3 Solar Sail - Orbit

View from above orbital plane
View from above orbital plane
View from above satellite
View from above satellite

Ground track
Ground track

The orbit is defined by the following mean orbital elements,

1 59588U          26109.07970916 +.00000000 +00000-0 +19457-1 0 00002
2 59588  97.1863  41.1236 0069452 354.8334   5.2106 13.91597884    03
Epoch (UTC): 19 April 2026 01:54:46
Eccentricity: 0.0069452
inclination: 97.1863°
perigee height: 872 km
apogee height: 974 km
right ascension of ascending node: 41.1236°
argument of perigee: 354.8334°
revolutions per day: 13.91597884
mean anomaly at epoch: 5.2106°

The dashed part of the orbit path shows where the satellite is in the earth's shadow,  

DLR